Location: *
(35.8942°N, 23.3025°E)
Time: 21:43:30
(UTC+00:00)

N. Korean satellite - Pass Details

Date: 03 December 2022
Orbit: 407 x 442 km, 97.3° (Epoch: 05 February)

Event Time Altitude Azimuth Distance (km) Brightness Sun altitude
Rises 04:07:30 0° 1° (N) 2,513 10.0 -14.5°
Reaches altitude 10° 04:09:40 10° 353° (N) 1,626 9.0 -14.0°
Maximum altitude 04:12:53 35° 286° (WNW) 760 7.0 -13.4°
Drops below altitude 10° 04:16:02 10° 219° (SW) 1,591 9.0 -12.8°
Sets 04:18:08 0° 210° (SSW) 2,449 10.0 -12.4°
